Find Starlink 31722

NORAD ID: 59549 Int'l Des: 2024-074 Owner: SPXS Country: US Constellation: starlink operational
LEOCIRCULAR

Live Position

Loading 3D Globe...

About Starlink 31722

Description loading...

Upcoming Passes

Passes for default location (London). Set your location on the main map for personalized predictions.

Altitude History

Loading altitude history...

Two-Line Element Set

1 59549U 24074R 26123.44774721 -.00000161 00000-0 36870-5 0 9997
2 59549 43.0017 33.8691 0001620 282.7736 77.2935 15.27575870114391
Epoch: May 3, 2026 • Age: 18 hours

Current Status

Altitude 492.3 km
Velocity 7.62 km/s
Sub-Earth Point -34.91°S, 40.03°W
Launch Date Apr 18, 2024
Age 2 years
Type internet

Technical Details

Classification Payload
Mass 730.00 kg
Dry Mass 700.00 kg
Total Mass 730.00 kg
Length 0.30 m
Diameter 4.10 m
Span 29.00 m
Shape Box + pan
Manufacturer SPXS
Bus Type Starlink V2M
Phase Status In Orbit
Owner/State SPXS/US

Most Searched